Regional Weather Roundup
Issued by NWS Upton, NY

Home | Current Version | Previous Version | Text Only | Print | Product List | Glossary On
Versions: 1 2 3 4 5 6 7 8 9 10 11 12 13 14 15 16 17 18 19 20 21 22 23 24 25 26 27 28 29 30 31 32 33 34 35 36 37 38 39 40 41 42 43 44 45 46 47 48 49 50
000
ASUS41 KOKX 011518
RWROKX

REGIONAL WEATHER ROUNDUP
NATIONAL WEATHER SERVICE NEW YORK NY
1100 AM EDT WED JUL 01 2015

NOTE: "FAIR" INDICATES FEW OR NO CLOUDS BELOW 12,000 FEET WITH NO
SIGNIFICANT WEATHER AND/OR OBSTRUCTIONS TO VISIBILITY.

NYZ071-072-176-178-NJZ106-104-011600-
NEW YORK CITY METRO AREA


CITY           SKY/WX    TMP DP  RH WIND       PRES   REMARKS
CENTRAL PARK   MOSUNNY   75  65  70 VRB3      29.82F
LAGUARDIA APRT PTSUNNY   76  64  66 W9        29.80R
KENNEDY INTL   PTSUNNY   76  66  71 SW16      29.82R
NEWARK/LIBERTY PTSUNNY   77  65  66 SW9       29.80S
BRNX BOT. GARD   N/A     77  63  61 SW23      29.80S
TETERBORO      MOSUNNY   76  63  64 SW9       29.78S
$$

NYZ177-179-078>081-011600-
LONG ISLAND NEW YORK

CITY           SKY/WX    TMP DP  RH WIND       PRES   REMARKS
FARMINGDALE    PTSUNNY   75  66  73 W14       29.81R
ISLIP          PTSUNNY   75  65  70 SW14G22   29.79R
SHIRLEY        MOSUNNY   75  67  76 S10G17    29.81S
WESTHAMPTON    SUNNY     75  68  78 SW14G21   29.82S
MONTAUK POINT    N/A     73  66  78 SW9G23    29.81R
$$

NYZ052-065-067-011600-
HUDSON VALLEY

CITY           SKY/WX    TMP DP  RH WIND       PRES   REMARKS
WHITE PLAINS   PTSUNNY   74  64  71 W7        29.80R
NEWBURGH       PTSUNNY   72  66  83 W9        29.79R
MONTGOMERY     PTSUNNY   73  64  73 SW12      29.78R
POUGHKEEPSIE   PTSUNNY   74  66  76 S6        29.76R
ALBANY         CLOUDY    70  65  84 S8        29.73S
$$

NJZ001-105-106-008-010-013-015-019>022-104-011600-
NEW JERSEY

CITY           SKY/WX    TMP DP  RH WIND       PRES   REMARKS
NEWARK/LIBERTY PTSUNNY   77  65  66 SW9       29.80S
TETERBORO      MOSUNNY   76  63  64 SW9       29.78S
CALDWELL       MOSUNNY   75  61  61 SW10G18   29.80S
MORRISTOWN     PTSUNNY   79  66  65 W14       29.81S
SOMERVILLE     MOSUNNY   76  64  66 VRB6      29.79S
SUSSEX         PTSUNNY   73  62  68 W7        29.80R
ANDOVER          N/A     72  62  71 VRB6      29.82R
TRENTON        MOSUNNY   76  64  66 W9        29.81S
MILLVILLE      SUNNY     78  65  63 W8        29.85R
ATLANTIC CITY  MOSUNNY   79  65  62 W7        29.84S
WRIGHTSTOWN    MOSUNNY   77  67  71 W9        29.81S
TOMS RIVER     PTSUNNY   79  64  61 W9        29.83S
BELMAR         PTSUNNY   75  64  69 W13       29.83R
$$

PAZ047>061-062-071-011600-
EASTERN PENNSYLVANIA

CITY           SKY/WX    TMP DP  RH WIND       PRES   REMARKS
PHILADELPHIA   MOSUNNY   78  64  61 SW9       29.83S
ALLENTOWN      CLOUDY    74  63  68 W10       29.81S
SCRANTON       CLOUDY    69  60  73 SW13      29.82R
$$

CTZ002-004>006-009-010-012-RIZ004-006-007-MAZ004-011-015-011600-
SOUTHERN NEW ENGLAND
 IN CT

CITY           SKY/WX    TMP DP  RH WIND       PRES   REMARKS
BRADLEY INTL   CLOUDY    72  66  81 SW5       29.75F
HARTFORD       MOSUNNY   76  69  79 S9        29.75F
DANBURY        PTSUNNY   73  64  73 SW12      29.80R
WTRBRY/OXFORD  PTSUNNY   73  64  73 S6        29.81S
BRIDGEPORT     PTSUNNY   75  67  76 SW10      29.79R
MERIDEN        PTSUNNY   76  67  73 S9        29.77S
NEW HAVEN      PTSUNNY   74  67  78 SW8       29.79R
CHESTER        PTSUNNY   73  70  88 SW8       29.80S
GROTON         CLOUDY    72  67  84 SW8       29.78S
WILLIMANTIC    CLOUDY    71  68  90 S6        29.78S

 IN RI

CITY           SKY/WX    TMP DP  RH WIND       PRES   REMARKS
PROVIDENCE     CLOUDY    71  66  84 S10G18    29.79S
BLOCK ISLAND   MOSUNNY   72  66  83 SW20G29   29.80R
WESTERLY       MOSUNNY   73  67  81 SW10      29.80R

 IN MA

CITY           SKY/WX    TMP DP  RH WIND       PRES   REMARKS
BOSTON         CLOUDY    66  64  94 SE8       29.77F
WORCESTER      CLOUDY    68  64  87 SW12      29.79S
WESTFIELD      CLOUDY    69  65  86 VRB3      29.76F
PROVINCETOWN   CLOUDY    64   9  11 SE13G20   29.81F THUNDER
NANTUCKET      CLOUDY    71  67  87 S15       29.80F FOG
$$

ANZ330-335-338-340-345-350-353-355-011600-
COASTAL MARINE OBSERVATIONS


STATION/POSITION TIME  SKY/WX   TEMP    WIND        PRES    VSBY  WAVE
                                AIR SEA DIR/SP/G                  HT/PER
                 (UTC)          (F)     (DEG/KT/KT) (MB)    (MI)  (FT/S)
NY HARB ENTRANCE 1450            71 70  220/ 10/ 12 1009.4          3/ 8
4S FIRE IS       1403               67                N/A           4/ 8
20S FIRE ISLAND  1450            69 66  230/ 14/ 17 1009.5          4/ 8
GREAT SOUTH BAY  1400            71 74  250/ 12/ 17   N/A
23SW MTP         1450            68 65  230/ 12/ 14 1009.3          4/ 8
HUDSON CANYON    NOT AVBL
KINGS POINT      1400            72 66  230/  7/  9 1008.0
CENTRAL LI SOUND NOT AVBL
EASTERN LI SOUND 1400            68 64  200/  8/ 10   N/A
ROBBINS REEF     1400            72     250/ 14/ 17 1007.9
$$


>>>>>>>>>>>>>>>>>>>>>>>>>>>> KEY <<<<<<<<<<<<<<<<<<<<<<<<<<<
>                                                          <
>     SKY/WX - SKY CONDITION/PRESENT WEATHER               <
>     TMP    - TEMPERATURE IN FAHRENHEIT                   <
>     DP     - DEWPOINT IN FAHRENHEIT                      <
>     RH     - RELATIVE HUMIDITY IN PERCENT                <
>     WIND   - DIRECTION AND SPEED IN MPH                  <
>     PRES   - MEAN SEA LEVEL PRESSURE IN INCHES OF HG     <
>     WCI    - WIND CHILL INDEX                            <
>     VSB    - VISIBILITY IN MILES                         <
>     HX     - HEAT INDEX                                  <
>     TC     - TEMPERATURE IN CELSIUS                      <
>     VRB    - VARIABLE WIND DIRECTION                     <
>                                                          <
>>>>>>>>>>>>>>>>>>>>>>>>>>>> KEY <<<<<<<<<<<<<<<<<<<<<<<<<<<





USA.gov is the U.S. government's official web portal to all federal, state and local government web resources and services.